Blacksburg, VA

8:42 AM EST on February 07, 2016 (GMT -0500)
Virginia Tech

Weather History for KBCB - May, 2013

Change the Weather History Date:

Saturday, May 4, 2013

  Actual Average Record
Temperature  
Mean Temperature 52 °F 56 °F  
Max Temperature 61 °F 69 °F 85 °F (1959)
Min Temperature 42 °F 43 °F 28 °F (1967)
Degree Days  
Heating Degree Days 13 9  
Month to date heating degree days 40 38  
Since 1 July heating degree days 5181 5243  
Cooling Degree Days 0 0  
Month to date cooling degree days 0 0  
Year to date cooling degree days 0 3  
Growing Degree Days 3 (Base 50)    
Moisture  
Dew Point 45 °F    
Average Humidity 74    
Maximum Humidity 92    
Minimum Humidity 55    
Precipitation  
Precipitation 0.00 in 0.12 in 0.96 in (1998)
Month to date precipitation 0.02 0.49  
Year to date precipitation 16.06 13.50  
Snow  
Snow 0.00 in - - ()
Month to date snowfall 0.0  
Since 1 July snowfall 27.9  
Snow Depth 0.00 in    
Sea Level Pressure  
Sea Level Pressure 30.18 in    
Wind  
Wind Speed 14 mph (East)    
Max Wind Speed 20 mph    
Max Gust Speed 28 mph    
Visibility 10 miles    
Events      
T = Trace of Precipitation, MM = Missing Value Source: NWS Daily Summary

Daily Weather History Graph

Daily Weather History Graph

Search for Another Location

Airport or City:

Trip Planner

Search our weather history database for the weather conditions in past years. The results will help you decide how hot, cold, wet, or windy it might be!

Date:

Astronomy

May. 04, 2013 Rise Set
Actual Time 6:23 AM EDT 8:13 PM EDT
Civil Twilight 5:55 AM EDT 8:42 PM EDT
Nautical Twilight 5:20 AM EDT 9:16 PM EDT
Astronomical Twilight 4:44 AM EDT 9:53 PM EDT
Moon 3:13 AM EDT (5/4) 3:16 PM EDT (5/4)
Length of Visible Light 14h 47m
Length of Day
13h 50m
Waning Crescent, 27% of the Moon is Illuminated
May 4
Waning Crescent
May 9
New
May 18
First Quarter
May 25
Full
May 31
Last Quarter

Hourly Weather History & Observations

Time (EDT) Temp. Windchill Dew Point Humidity Pressure Visibility Wind Dir Wind Speed Gust Speed Precip Events Conditions
12:15 AM 51.8 °F - 44.6 °F 76% 30.23 in 10.0 mi East 15.0 mph 23.0 mph N/A   Clear
12:35 AM 51.8 °F - 44.6 °F 76% 30.23 in 10.0 mi East 17.3 mph 25.3 mph N/A   Clear
12:55 AM 50.0 °F - 44.6 °F 82% 30.23 in 10.0 mi East 16.1 mph 21.9 mph N/A   Scattered Clouds
1:15 AM 48.2 °F - 44.6 °F 87% 30.23 in 10.0 mi East 12.7 mph 23.0 mph N/A   Scattered Clouds
1:35 AM 48.2 °F - 42.8 °F 82% 30.23 in 10.0 mi East 16.1 mph 23.0 mph N/A   Clear
1:55 AM 48.2 °F - 42.8 °F 82% 30.21 in 10.0 mi East 13.8 mph 27.6 mph N/A   Clear
2:15 AM 48.2 °F - 42.8 °F 82% 30.20 in 10.0 mi East 17.3 mph 25.3 mph N/A   Clear
2:35 AM 46.4 °F 40.1 °F 42.8 °F 87% 30.20 in 10.0 mi East 15.0 mph 26.5 mph N/A   Clear
2:55 AM 46.4 °F 40.1 °F 42.8 °F 87% 30.20 in 10.0 mi East 15.0 mph 24.2 mph N/A   Scattered Clouds
3:15 AM 46.4 °F 40.7 °F 42.8 °F 87% 30.20 in 10.0 mi East 12.7 mph 18.4 mph N/A   Scattered Clouds
3:35 AM 46.4 °F 41.5 °F 42.8 °F 87% 30.20 in 10.0 mi East 10.4 mph 16.1 mph N/A   Mostly Cloudy
3:55 AM 46.4 °F 40.7 °F 42.8 °F 87% 30.20 in 10.0 mi ENE 12.7 mph 19.6 mph N/A   Overcast
4:15 AM 46.4 °F 40.4 °F 42.8 °F 87% 30.20 in 10.0 mi East 13.8 mph 21.9 mph N/A   Overcast
4:35 AM 46.4 °F 41.1 °F 42.8 °F 87% 30.20 in 10.0 mi East 11.5 mph - N/A   Overcast
4:55 AM 46.4 °F 40.7 °F 42.8 °F 87% 30.21 in 10.0 mi East 12.7 mph 18.4 mph N/A   Overcast
5:15 AM 46.4 °F 40.7 °F 42.8 °F 87% 30.21 in 10.0 mi ENE 12.7 mph 16.1 mph N/A   Overcast
5:35 AM 46.4 °F 41.1 °F 42.8 °F 87% 30.21 in 10.0 mi East 11.5 mph 16.1 mph N/A   Overcast
5:55 AM 44.6 °F 38.4 °F 42.8 °F 93% 30.21 in 10.0 mi East 12.7 mph - N/A   Overcast
6:15 AM 44.6 °F 38.1 °F 42.8 °F 93% 30.21 in 10.0 mi East 13.8 mph 20.7 mph N/A   Overcast
6:35 AM 44.6 °F 38.1 °F 42.8 °F 93% 30.22 in 10.0 mi East 13.8 mph 18.4 mph N/A   Overcast
6:55 AM 44.6 °F 38.8 °F 42.8 °F 93% 30.22 in 10.0 mi East 11.5 mph - N/A   Overcast
7:15 AM 46.4 °F 41.9 °F 42.8 °F 87% 30.22 in 10.0 mi East 9.2 mph 16.1 mph N/A   Overcast
7:35 AM 46.4 °F 41.5 °F 42.8 °F 87% 30.22 in 10.0 mi East 10.4 mph 18.4 mph N/A   Mostly Cloudy
7:55 AM 46.4 °F 42.4 °F 42.8 °F 87% 30.22 in 10.0 mi East 8.1 mph - N/A   Scattered Clouds
8:15 AM 46.4 °F 40.7 °F 42.8 °F 87% 30.21 in 10.0 mi East 12.7 mph 19.6 mph N/A   Mostly Cloudy
8:35 AM 46.4 °F 40.7 °F 42.8 °F 87% 30.21 in 10.0 mi East 12.7 mph 18.4 mph N/A   Mostly Cloudy
8:55 AM 48.2 °F - 42.8 °F 82% 30.21 in 10.0 mi East 12.7 mph - N/A   Scattered Clouds
9:15 AM 48.2 °F - 42.8 °F 82% 30.21 in 10.0 mi East 13.8 mph - N/A   Clear
9:35 AM 48.2 °F - 44.6 °F 87% 30.21 in 10.0 mi East 11.5 mph 18.4 mph N/A   Scattered Clouds
9:55 AM 48.2 °F - 44.6 °F 87% 30.21 in 10.0 mi East 13.8 mph - N/A   Mostly Cloudy
10:15 AM 50.0 °F - 44.6 °F 82% 30.20 in 10.0 mi East 10.4 mph 18.4 mph N/A   Overcast
10:35 AM 50.0 °F - 44.6 °F 82% 30.20 in 10.0 mi East 12.7 mph - N/A   Overcast
10:55 AM 50.0 °F - 44.6 °F 82% 30.20 in 10.0 mi East 11.5 mph - N/A   Overcast
11:15 AM 51.8 °F - 44.6 °F 76% 30.21 in 10.0 mi ENE 11.5 mph 18.4 mph N/A   Overcast
11:35 AM 51.8 °F - 44.6 °F 76% 30.20 in 10.0 mi ENE 11.5 mph - N/A   Mostly Cloudy
11:55 AM 51.8 °F - 44.6 °F 76% 30.20 in 10.0 mi East 13.8 mph 19.6 mph N/A   Scattered Clouds
12:15 PM 51.8 °F - 44.6 °F 76% 30.20 in 10.0 mi East 12.7 mph 18.4 mph N/A   Clear
12:35 PM 55.4 °F - 46.4 °F 72% 30.19 in 10.0 mi East 12.7 mph 19.6 mph N/A   Clear
12:55 PM 53.6 °F - 44.6 °F 72% 30.18 in 10.0 mi East 12.7 mph 19.6 mph N/A   Clear
1:15 PM 57.2 °F - 46.4 °F 67% 30.18 in 10.0 mi East 15.0 mph 20.7 mph N/A   Clear
1:35 PM 59.0 °F - 46.4 °F 63% 30.17 in 10.0 mi East 12.7 mph 20.7 mph N/A   Clear
1:55 PM 60.8 °F - 44.6 °F 55% 30.17 in 10.0 mi East 12.7 mph 19.6 mph N/A   Scattered Clouds
2:15 PM 57.2 °F - 42.8 °F 59% 30.17 in 10.0 mi East 16.1 mph - N/A   Mostly Cloudy
2:35 PM 60.8 °F - 44.6 °F 55% 30.16 in 10.0 mi ENE 8.1 mph 20.7 mph N/A   Scattered Clouds
2:55 PM 60.8 °F - 46.4 °F 59% 30.15 in 10.0 mi East 10.4 mph 19.6 mph N/A   Mostly Cloudy
3:15 PM 62.6 °F - 46.4 °F 55% 30.14 in 10.0 mi ENE 15.0 mph 21.9 mph N/A   Scattered Clouds
3:35 PM 62.6 °F - 46.4 °F 55% 30.14 in 10.0 mi ENE 13.8 mph 24.2 mph N/A   Scattered Clouds
3:55 PM 62.6 °F - 46.4 °F 55% 30.13 in 10.0 mi East 16.1 mph 25.3 mph N/A   Scattered Clouds
4:15 PM 62.6 °F - 46.4 °F 55% 30.12 in 10.0 mi ENE 16.1 mph 21.9 mph N/A   Clear
4:35 PM 62.6 °F - 46.4 °F 55% 30.12 in 10.0 mi East 18.4 mph 24.2 mph N/A   Scattered Clouds
4:55 PM 60.8 °F - 48.2 °F 63% 30.12 in 10.0 mi East 17.3 mph 20.7 mph N/A   Scattered Clouds
5:15 PM 60.8 °F - 48.2 °F 63% 30.12 in 10.0 mi East 16.1 mph 24.2 mph N/A   Scattered Clouds
5:35 PM 60.8 °F - 48.2 °F 63% 30.12 in 10.0 mi ENE 17.3 mph 23.0 mph N/A   Scattered Clouds
5:55 PM 60.8 °F - 48.2 °F 63% 30.12 in 10.0 mi ENE 19.6 mph 25.3 mph N/A   Scattered Clouds
6:15 PM 59.0 °F - 48.2 °F 67% 30.12 in 10.0 mi ENE 15.0 mph 25.3 mph N/A   Scattered Clouds
6:35 PM 57.2 °F - 48.2 °F 72% 30.13 in 10.0 mi ENE 16.1 mph 25.3 mph N/A   Mostly Cloudy
6:55 PM 57.2 °F - 48.2 °F 72% 30.14 in 10.0 mi East 12.7 mph 23.0 mph N/A   Overcast
7:15 PM 55.4 °F - 48.2 °F 77% 30.14 in 10.0 mi East 17.3 mph 23.0 mph N/A   Overcast
7:35 PM 55.4 °F - 48.2 °F 77% 30.15 in 10.0 mi East 19.6 mph 25.3 mph N/A   Overcast
7:55 PM 53.6 °F - 48.2 °F 82% 30.15 in 10.0 mi East 16.1 mph 24.2 mph N/A   Overcast
8:15 PM 53.6 °F - 48.2 °F 82% 30.16 in 10.0 mi East 15.0 mph 19.6 mph N/A   Overcast
8:35 PM 53.6 °F - 48.2 °F 82% 30.16 in 10.0 mi East 16.1 mph 21.9 mph N/A   Overcast
8:55 PM 53.6 °F - 48.2 °F 82% 30.16 in 10.0 mi East 13.8 mph 20.7 mph N/A   Overcast
9:15 PM 53.6 °F - 48.2 °F 82% 30.16 in 10.0 mi East 17.3 mph - N/A   Overcast
9:35 PM 53.6 °F - 48.2 °F 82% 30.16 in 10.0 mi East 10.4 mph 20.7 mph N/A   Overcast
9:55 PM 53.6 °F - 48.2 °F 82% 30.17 in 10.0 mi East 12.7 mph 18.4 mph N/A   Overcast
10:15 PM 53.6 °F - 48.2 °F 82% 30.16 in 10.0 mi East 12.7 mph - N/A   Overcast
10:35 PM 53.6 °F - 48.2 °F 82% 30.16 in 10.0 mi East 15.0 mph 21.9 mph N/A   Overcast
10:55 PM 53.6 °F - 50.0 °F 88% 30.15 in 10.0 mi East 17.3 mph 20.7 mph N/A   Overcast
11:15 PM 53.6 °F - 50.0 °F 88% 30.15 in 10.0 mi East 15.0 mph 24.2 mph N/A   Overcast
11:35 PM 53.6 °F - 50.0 °F 88% 30.15 in 10.0 mi East 12.7 mph 21.9 mph N/A   Overcast
11:55 PM 53.6 °F - 50.0 °F 88% 30.14 in 10.0 mi East 17.3 mph 23.0 mph N/A   Overcast